TimePST,TemperatureF,Dew PointF,Humidity,Sea Level PressureIn,VisibilityMPH,Wind Direction,Wind SpeedMPH,Gust SpeedMPH,PrecipitationIn,Events,Conditions,WindDirDegrees,DateUTC
12:52 AM,55.9,42.1,60,29.84,10.0,NNW,6.9,-,N/A,,Clear,340,2013-02-19 08:52:00
1:52 AM,55.9,42.1,60,29.83,10.0,NNW,10.4,-,N/A,,Clear,330,2013-02-19 09:52:00
2:52 AM,55.0,41.0,59,29.81,10.0,NW,11.5,17.3,N/A,,Clear,320,2013-02-19 10:52:00
3:52 AM,55.0,39.9,57,29.80,10.0,NNW,17.3,23.0,N/A,,Clear,330,2013-02-19 11:52:00
4:52 AM,55.0,37.9,53,29.80,10.0,NNW,12.7,-,N/A,,Clear,330,2013-02-19 12:52:00
5:52 AM,54.0,37.0,53,29.81,10.0,NW,8.1,18.4,N/A,,Clear,320,2013-02-19 13:52:00
6:52 AM,54.0,36.0,51,29.82,10.0,NNW,15.0,-,N/A,,Clear,330,2013-02-19 14:52:00
7:52 AM,57.0,35.1,44,29.82,10.0,NNW,15.0,-,N/A,,Clear,330,2013-02-19 15:52:00
8:52 AM,61.0,34.0,36,29.81,10.0,NW,15.0,-,N/A,,Clear,320,2013-02-19 16:52:00
10:52 AM,62.1,30.9,31,29.80,10.0,NNW,11.5,19.6,N/A,,Clear,330,2013-02-19 18:52:00
11:52 AM,63.0,32.0,31,29.78,10.0,North,11.5,-,N/A,,Clear,350,2013-02-19 19:52:00
12:52 PM,64.9,32.0,29,29.74,10.0,Variable,5.8,-,N/A,,Clear,0,2013-02-19 20:52:00
1:52 PM,66.9,33.1,28,29.72,10.0,WNW,18.4,23.0,N/A,,Clear,290,2013-02-19 21:52:00
2:52 PM,64.0,34.0,33,29.70,10.0,NNW,12.7,-,N/A,,Clear,330,2013-02-19 22:52:00
4:52 PM,63.0,34.0,34,29.67,9.0,NW,21.9,27.6,N/A,,Clear,310,2013-02-20 00:52:00
5:52 PM,61.0,34.0,36,29.68,10.0,NNW,5.8,-,N/A,,Partly Cloudy,340,2013-02-20 01:52:00
7:52 PM,57.9,34.0,41,29.67,10.0,WNW,19.6,33.4,N/A,,Clear,300,2013-02-20 03:52:00
8:52 PM,57.0,33.1,40,29.68,10.0,WNW,13.8,20.7,N/A,,Partly Cloudy,300,2013-02-20 04:52:00
9:52 PM,55.9,30.0,37,29.68,8.0,West,23.0,31.1,N/A,,Clear,280,2013-02-20 05:52:00
10:52 PM,55.0,30.0,38,29.64,10.0,Variable,6.9,20.7,N/A,,Partly Cloudy,0,2013-02-20 06:52:00
11:52 PM,53.1,34.0,48,29.67,10.0,NNE,4.6,-,N/A,,Mostly Cloudy,20,2013-02-20 07:52:00